Dewpoint
55 55 55 55 55 55 52 50 51 52 52 53 53 54 54 54 54 50 48 52 48 39 39 39 37 37 36 34 33 37 32 30 28 36 37 39 41 41 37 32 30 31 33 34 29 28 27 35 34 29 39 41 38 38
54 54 54 54 55 54 51 50 51 52 52 53 53 54 54 54 54 51 43 49 51 44 42 45 42 42 40 38 36 37 34 30 29 38 40 40 41 39 39 37 33 33 32 37 30 33 39 39 39 41 37 37 38 38
54 54 54 54 55 53 50 50 51 51 52 52 53 53 54 54 54 51 48 51 49 43 41 40 40 44 43 42 40 35 36 37 36 36 31 37 37 42 39 38 33 32 34 30 32 31 37 39 39 39 37 36 38 38
54 54 54 54 55 53 50 50 50 51 51 52 53 53 54 53 52 52 50 51 49 44 36 38 44 45 45 43 43 39 40 40 37 36 34 33 39 34 39 38 34 33 35 33 35 34 34 38 39 37 38 38 37 37
53 53 53 54 54 52 49 49 50 50 51 50 52 53 53 53 51 52 52 51 51 46 38 38 42 43 44 44 43 41 39 39 38 37 35 36 36 36 35 34 37 34 34 37 33 32 36 33 38 40 39 39 38 37
53 53 53 54 54 50 49 49 50 50 50 50 50 52 52 53 52 50 47 50 51 49 43 36 41 44 45 44 43 42 41 43 40 39 38 39 40 38 43 42 38 37 38 38 35 38 36 37 39 40 38 39 38 37
53 53 53 54 53 50 49 49 50 50 50 50 49 51 52 52 50 46 47 49 51 51 43 36 38 43 44 44 43 42 43 42 42 44 44 42 40 43 40 40 39 42 41 40 40 38 38 37 37 39 39 40 41 39
52 53 53 54 52 50 49 49 50 50 50 49 49 51 52 51 50 50 51 51 50 47 44 39 37 43 45 44 43 44 43 45 47 45 45 43 42 42 35 41 43 43 44 42 40 40 36 37 39 40 40 40 40 40
52 53 53 53 50 49 48 49 50 49 49 49 50 51 51 50 50 49 52 52 52 48 43 41 37 38 47 50 47 48 47 43 45 43 42 44 39 35 42 42 42 41 44 43 42 41 40 38 39 39 39 39 39 39
52 53 53 51 50 49 48 49 49 49 49 50 51 50 48 51 53 52 51 48 47 46 45 41 43 38 43 49 48 44 45 44 41 43 46 42 41 44 42 43 44 46 46 45 42 40 41 39 38 39 39 39 39 38
52 52 52 50 49 48 49 49 50 49 49 50 49 48 51 52 51 49 46 45 46 44 44 45 46 41 47 46 47 47 45 45 39 41 40 38 41 37 40 43 46 45 44 44 43 42 41 41 40 39 39 40 40 40
52 51 50 49 48 48 49 51 50 48 49 50 50 50 51 49 47 44 45 46 46 41 46 46 47 46 48 51 46 46 42 41 35 40 38 37 35 39 42 42 45 42 43 41 40 40 41 41 41 41 40 39 40 41
50 49 49 48 48 49 49 50 51 50 50 50 48 48 48 48 40 43 38 42 44 44 45 46 44 48 49 46 43 45 37 37 41 37 37 34 38 40 43 43 44 45 44 46 44 43 43 42 44 44 43 42 41 41
48 47 46 47 48 50 51 50 50 50 48 42 44 39 45 44 45 44 44 45 47 46 46 45 45 45 45 43 44 37 40 39 33 33 33 30 41 43 43 43 43 43 44 43 44 44 44 44 45 47 47 46 44 44
48 48 50 50 49 49 51 51 51 50 46 40 42 39 44 46 47 50 50 50 48 47 44 44 46 44 40 40 40 37 34 31 32 31 30 38 44 44 43 42 41 41 43 43 44 43 44 44 44 45 46 47 47 46
48 49 48 50 50 50 50 50 51 50 46 41 41 38 44 44 45 48 48 45 44 43 43 40 37 34 34 34 33 29 28 28 29 32 35 40 44 45 45 44 45 45 45 45 46 45 46 46 45 46 46 47 48 46
49 49 50 50 51 51 51 50 48 45 42 42 39 38 38 42 45 48 46 44 46 40 34 34 27 28 35 29 29 34 32 30 34 34 37 45 47 46 46 45 44 44 44 44 43 44 45 46 48 45 44 46 48 46
51 49 49 49 49 50 51 51 50 47 44 41 38 43 48 49 48 47 47 47 42 40 40 36 36 31 27 24 29 32 34 36 39 39 41 46 47 46 43 43 43 43 43 43 42 43 45 47 46 45 45 46 46 47
46 48 50 49 47 43 43 49 49 41 39 43 46 48 50 50 52 51 49 49 47 46 42 41 36 34 32 31 32 34 36 36 36 40 44 46 45 43 43 42 42 40 40 42 41 46 46 45 47 45 46 45 45 46
50 51 51 51 49 46 42 43 53 49 46 51 50 50 50 50 49 49 48 47 45 43 42 40 37 35 35 38 38 37 39 43 41 38 42 39 39 40 41 37 35 37 34 38 40 41 42 44 47 44 46 45 44 44
47 50 49 49 48 48 46 46 46 49 53 51 53 53 50 49 48 46 46 48 46 43 41 41 40 40 44 43 43 44 45 45 43 39 38 34 35 35 35 36 35 33 32 37 41 43 40 43 45 46 44 46 46 44
47 50 53 52 50 50 48 48 44 45 44 44 48 47 42 43 44 46 47 45 43 42 43 43 44 44 47 48 47 48 49 48 45 36 36 35 31 32 33 33 32 33 34 37 38 42 41 38 39 41 36 36 40 40
49 50 52 52 49 46 45 52 48 47 43 45 49 46 46 46 47 48 45 44 44 48 47 46 50 49 48 50 50 48 48 44 36 33 32 31 31 32 32 32 32 34 34 36 37 39 36 37 37 38 38 38 37 34
47 50 49 48 47 44 49 49 51 51 50 50 47 44 45 47 48 45 43 43 44 45 44 50 47 46 46 48 42 41 40 35 34 33 32 31 30 32 32 31 34 35 35 35 35 38 39 37 37 34 34 32 31 30
44 44 45 39 48 47 47 45 46 46 43 45 44 45 46 47 46 42 41 41 43 43 45 46 44 42 38 37 35 37 40 33 30 30 32 33 31 30 29 31 34 35 34 31 31 31 33 35 32 31 30 30 30 30
38 43 43 42 41 42 41 42 43 43 44 42 45 50 47 45 42 40 41 42 43 44 44 43 41 38 36 35 32 33 35 34 34 30 32 31 31 28 26 28 30 32 33 31 30 30 30 30 29 29 30 32 35 31
37 37 41 45 44 43 44 46 45 42 41 41 47 47 46 40 39 42 45 45 43 44 44 42 38 33 32 31 31 33 34 34 35 31 32 32 30 31 28 27 30 32 33 32 32 32 31 30 29 29 30 31 31 30
40 41 38 39 41 39 38 39 39 40 44 47 47 42 39 38 38 44 44 44 43 44 41 38 32 29 29 31 32 34 34 33 32 31 32 31 30 28 32 33 34 37 36 33 33 32 33 32 31 30 30 31 32 32
40 41 41 38 38 36 41 40 38 42 48 48 46 43 42 46 48 46 44 40 41 41 35 33 31 30 30 31 33 32 32 30 30 31 31 26 26 27 30 31 32 34 32 29 35 35 34 32 31 30 31 30 32 32
38 37 36 34 33 31 31 35 37 45 49 47 47 45 46 47 48 50 44 38 37 33 30 28 27 27 28 28 29 30 30 29 27 28 29 27 25 26 30 29 30 30 28 29 29 31 36 34 34 32 32 31 31 31
39 37 36 35 33 31 29 30 35 38 42 40 43 46 45 47 50 47 44 39 36 32 31 27 26 26 26 27 29 30 28 30 31 31 30 29 26 27 29 30 28 28 29 29 29 29 29 30 31 31 31 31 31 30
39 37 34 33 32 37 44 45 42 42 46 50 46 49 48 49 48 46 44 41 37 34 35 32 28 28 29 29 29 29 33 28 31 32 34 30 29 29 29 28 28 27 29 28 28 28 29 30 30 30 30 30 31 31
39 36 36 34 31 32 36 41 41 44 47 49 51 49 48 47 47 49 43 42 41 38 36 33 32 34 37 34 33 35 34 32 33 34 34 33 32 31 28 28 28 28 28 28 27 27 28 29 29 30 31 31 32 31
Lifted_Index
5 5 4 3 3 3 5 9 9 8 7 6 6 7 7 7 7 6 5 4 3 3 3 4 4 4 4 4 4 4 5 5 5 4 4 4 4 4 4 4 4 4 3 3 3 3 4 5 5 5 5 6 6 7
5 5 4 3 3 4 7 9 9 8 7 6 6 6 7 7 7 6 5 4 3 3 3 3 4 4 3 4 4 4 4 5 5 5 4 4 4 5 4 4 4 4 4 4 4 4 4 5 5 6 6 6 7 7
5 5 4 3 2 4 8 10 9 8 7 6 5 6 6 6 6 5 4 4 3 3 3 3 3 3 3 3 3 4 4 5 5 5 5 4 4 4 4 4 4 5 5 4 4 4 4 5 5 6 6 7 7 7
5 4 4 3 2 4 8 10 9 8 7 6 6 5 5 5 5 5 4 3 3 3 3 3 3 3 3 3 3 3 4 4 4 4 4 4 4 4 4 4 4 4 5 5 4 4 5 5 5 6 6 6 7 7
4 4 3 3 3 5 8 10 9 8 7 7 6 6 6 6 6 4 3 3 3 3 3 3 3 3 3 3 3 3 4 3 3 3 3 3 3 3 3 3 3 4 4 4 4 4 4 5 5 5 6 6 6 7
4 3 3 3 3 5 8 10 9 8 7 7 7 6 6 6 5 4 3 3 4 3 3 3 3 3 3 3 3 3 3 2 2 2 2 2 2 3 2 2 2 3 3 4 4 4 4 5 5 6 6 6 7 7
4 3 3 3 3 5 8 10 9 8 7 6 6 6 5 5 5 4 3 3 4 3 3 2 2 2 2 2 2 2 2 1 1 1 1 2 2 2 2 2 2 2 3 3 4 4 4 5 5 5 6 6 6 7
4 4 4 3 3 5 8 9 9 8 7 6 5 5 4 4 4 3 3 4 4 3 2 2 2 1 1 1 1 1 1 1 1 1 1 2 2 2 2 2 2 2 3 3 3 4 4 4 5 5 5 6 6 6
5 4 4 4 4 6 9 10 9 8 7 6 5 4 3 3 3 3 4 4 3 2 2 1 1 1 1 0 -0 0 1 1 1 1 1 1 1 1 1 1 2 2 2 3 3 3 4 4 4 4 5 5 5 5
5 5 4 4 6 8 10 10 9 8 7 5 4 3 2 3 3 3 3 3 2 2 1 1 1 1 1 -0 -0 -0 0 1 1 1 1 1 1 1 1 1 1 1 2 3 3 3 4 4 4 4 4 4 4 4
5 5 5 6 8 9 10 9 8 7 6 5 3 3 3 3 3 2 2 2 1 1 1 1 1 1 1 -0 -0 -0 -0 -0 0 0 0 1 0 0 1 1 1 2 2 3 3 3 3 3 4 3 3 3 3 3
6 6 7 8 9 9 9 8 7 7 6 4 3 3 3 2 2 1 1 1 1 1 0 0 1 1 1 0 -0 -0 -0 -0 -0 0 1 1 1 0 0 0 1 2 2 2 2 2 2 2 2 2 2 2 2 2
7 8 9 9 9 9 8 7 7 7 6 4 3 2 2 1 0 -0 -0 0 0 -0 -0 0 0 1 1 1 0 -0 -0 -0 -0 0 1 1 0 0 0 0 0 1 1 1 1 1 1 1 1 1 1 1 1 1
8 9 10 10 9 8 7 7 7 7 6 4 3 2 1 -0 -1 -1 -1 -1 -1 -1 -0 0 0 1 1 0 0 -0 -0 -0 0 0 0 0 0 0 0 0 0 0 0 0 0 0 0 0 0 0 0 0 0 0
9 9 9 9 8 8 7 7 7 6 5 4 3 2 0 -1 -1 -1 -1 -1 -1 -0 0 1 1 1 1 1 1 0 0 0 0 0 0 -0 -0 -0 0 0 0 0 -0 -0 -0 0 -0 -0 -0 -0 -0 -0 -0 -0
8 8 7 7 7 8 7 7 7 6 5 4 3 2 1 -0 -1 -1 -1 -1 -0 0 1 2 2 2 2 2 2 1 1 1 1 1 0 0 -0 0 0 0 1 1 0 0 0 1 1 0 0 0 0 0 0 -0
7 6 6 6 6 7 7 6 5 4 4 3 3 2 1 -0 -1 -1 -1 -1 0 1 1 2 2 2 3 3 2 2 1 1 1 1 1 0 0 0 1 1 1 1 1 1 1 1 1 0 0 0 1 1 1 1
6 5 5 5 6 7 6 5 4 3 3 2 2 1 -0 -1 -1 -2 -1 -1 0 1 1 1 2 2 3 3 3 2 2 1 1 1 1 1 1 1 2 2 2 2 2 2 2 1 1 0 0 0 1 1 1 1
7 6 6 6 7 7 5 4 3 2 2 1 0 -1 -1 -2 -2 -2 -1 -1 0 1 0 1 1 2 2 2 3 2 2 1 1 1 1 1 2 2 3 3 3 3 3 2 2 1 0 -0 -0 0 1 1 1 1
7 7 6 6 6 6 5 3 2 1 0 -0 -1 -1 -2 -2 -1 -1 -1 -1 -0 -0 -0 -0 0 1 1 2 2 2 2 1 1 1 2 2 3 3 4 4 4 4 3 3 2 1 0 -0 -0 0 0 1 1 1
7 5 4 4 4 4 4 3 2 1 -0 -1 -1 -1 -1 -1 -1 -1 -1 -1 -1 -1 -1 -1 -0 0 1 1 2 2 1 1 2 3 3 4 4 4 4 5 4 4 3 3 2 1 1 1 1 1 1 1 0 0
7 5 3 3 3 3 3 2 2 1 1 -0 -1 -1 -1 -1 -1 -1 -1 -1 -1 -1 -1 -1 -0 0 1 1 1 1 2 2 3 4 5 5 5 5 5 5 5 4 3 3 2 1 1 1 1 1 1 1 0 0
7 5 3 2 3 3 2 1 1 1 0 -0 -1 -1 -1 -1 -1 -1 -1 -1 -1 -0 0 0 0 1 1 1 2 2 3 4 5 6 6 6 6 6 6 5 5 4 3 3 2 2 2 2 2 1 1 1 1 1
6 5 3 2 2 2 1 0 -0 -0 -1 -1 -1 -1 -1 -1 -1 -1 -1 -1 -1 0 1 1 1 1 2 3 3 4 5 5 6 6 7 6 6 6 6 6 5 4 4 3 3 3 3 3 2 2 2 2 2 2
4 4 3 3 2 1 0 -0 -0 -1 -1 -1 -1 -1 -1 -1 -1 -1 -1 -1 -0 1 1 2 2 2 3 4 5 5 6 6 7 7 7 7 6 6 6 6 5 5 4 4 4 4 4 3 3 3 3 3 3 3
4 4 3 3 2 1 1 -0 -0 -0 -1 -1 -1 -1 -1 -1 -1 -1 -1 -1 0 1 1 2 2 3 4 5 6 6 6 7 7 7 7 7 7 7 7 6 5 5 5 5 5 5 4 4 4 4 4 4 4 4
4 4 3 3 2 2 1 0 0 -0 -1 -1 -1 -1 -1 -1 -1 -1 -1 -0 1 1 2 3 4 4 5 6 7 7 7 7 7 7 7 7 8 8 7 6 6 6 6 6 5 5 5 5 5 4 4 4 4 4
4 4 4 3 3 3 2 1 1 -0 -1 -1 -1 -1 -1 -1 -1 -1 -0 0 1 2 3 4 5 6 6 7 7 7 7 7 8 8 8 8 8 8 8 7 6 6 6 6 6 6 6 5 5 5 5 4 4 4
4 4 4 4 4 3 3 2 1 -0 -1 -2 -1 -1 -1 -1 -1 -1 -0 1 2 3 3 4 6 7 7 7 8 8 8 8 8 8 7 8 8 8 8 7 7 7 6 7 7 7 6 6 6 5 5 5 4 4
4 4 4 4 4 4 4 3 2 0 -1 -1 -1 -1 -1 -1 -1 -1 0 1 2 3 4 5 6 7 7 7 7 8 8 8 8 7 7 7 8 8 8 7 7 7 7 7 7 7 7 7 6 6 5 4 4 4
4 4 4 4 4 4 4 3 2 1 0 -0 -1 -1 -1 -1 -1 -0 0 1 2 3 4 5 6 7 7 7 7 7 8 8 8 7 7 7 8 8 8 7 7 7 7 7 7 7 7 6 6 6 5 5 4 4
3 4 4 4 4 3 2 1 1 -0 -1 -1 -2 -2 -1 -1 -1 -0 1 1 2 4 5 5 6 7 7 7 7 7 7 7 7 7 7 8 8 8 8 7 7 7 7 7 6 6 6 6 6 6 5 5 5 5
3 4 4 4 3 3 1 0 -0 -1 -2 -3 -3 -2 -2 -1 -1 -0 1 2 3 4 6 6 6 7 7 7 7 8 7 7 7 8 8 8 8 8 8 8 7 7 7 7 6 6 6 6 6 6 6 5 5 5